Location: North Evanston
(42.0634°N, 87.6976°W)
Time: 22:44:59
(UTC+00:00)

Transit 2A - Pass Details

Date: 13 May 2026
Orbit: 595 x 949 km, 66.7° (Epoch: 5 June)

Event Time Altitude Azimuth Distance (km) Brightness Sun altitude
Rises 05:09:43 0° 340° (NNW) 3,245 10.4 -28.9°
Reaches altitude 10° 05:13:25 10° 5° (N) 2,229 9.3 -29.0°
Maximum altitude 05:16:01 14° 37° (NE) 1,911 8.5 -29.1°
Drops below altitude 10° 05:18:30 10° 68° (ENE) 2,112 8.4 -29.2°
Enters shadow 05:19:00 - 73° (ENE) 2,206 8.5 -29.2°
Sets 05:21:50 0° 95° (E) 2,954 - -29.3°
